TITAN 34D TRANSTAGE DEB

基本信息
目录编号:
23039
目录名称:
TITAN 34D TRANSTAGE DEB
国际标识:
1988-077J
轨道中心:
EARTH
物体状态:
在轨
发射日期:
1988-09-02 UTC
轨道信息
数据来源: 国际轨道数据
星历时间: 2026-07-11T12:47:44+0800
半长轴: 26266.321km
偏心率: 0.7371395
轨道倾角: 26.419°
近地点辐角: 278.296°
升交点赤经: 112.680°
平近点角: 11.733°
近地点: 526.241km
远地点: 39250.127km
周期: 706.088分钟
每日圈数: 2.039407
详细信息
发射场:
AFETR
轨道高度:
LEO
数据来源:
AOE Integration Group
参考系:
TEME
时间系统:
UTC
历元类型:
SGP4
2D轨道图
3D轨道图
轨道高度分析图
轨道倾角分析图
轨道综合分析图
查看轨道综合分析图